timestamp,wind_dir_avg,wind_spd_avg,wind_spd_max_dir,wind_spd_gust,battery_voltage,lat,long
2024-04-20 00:04:00+00:00,315.0,0.01,18.0,0.0,12.49,47.59359,-54.27349
2024-04-20 00:14:00+00:00,315.0,0.01,18.0,0.0,12.25,47.59359,-54.27349
2024-04-20 00:24:00+00:00,315.0,0.01,18.0,0.0,12.25,47.59359,-54.27349
2024-04-20 00:34:00+00:00,315.0,0.01,18.0,0.0,12.25,47.59359,-54.27349
2024-04-20 00:44:00+00:00,315.0,0.01,18.0,0.0,12.25,47.59359,-54.27349
2024-04-20 00:54:00+00:00,315.0,0.01,18.0,0.0,12.25,47.59359,-54.27349
2024-04-20 01:04:00+00:00,315.0,0.01,18.0,0.0,12.25,47.59359,-54.27349
2024-04-20 01:14:01+00:00,315.0,0.01,18.0,0.0,12.17,47.59359,-54.27349
2024-04-20 01:24:01+00:00,315.0,0.01,18.0,0.0,12.17,47.59359,-54.27349
2024-04-20 01:34:01+00:00,315.0,0.01,18.0,0.0,12.17,47.59359,-54.27349
2024-04-20 01:44:01+00:00,315.0,0.01,18.0,0.0,12.17,47.59359,-54.27349
2024-04-20 01:54:01+00:00,315.0,0.01,18.0,0.0,12.17,47.59359,-54.27349
2024-04-20 02:04:01+00:00,315.0,0.01,18.0,0.0,12.17,47.59359,-54.27349
2024-04-20 02:14:00+00:00,315.0,0.01,18.0,0.0,12.17,47.59359,-54.27349
2024-04-20 02:24:00+00:00,315.0,0.01,18.0,0.0,12.17,47.59359,-54.27349
2024-04-20 02:34:00+00:00,315.0,0.01,18.0,0.0,12.17,47.59359,-54.27349
2024-04-20 02:44:00+00:00,315.0,0.01,18.0,0.0,12.17,47.59359,-54.27349
2024-04-20 02:54:00+00:00,315.0,0.01,18.0,0.0,12.17,47.59359,-54.27349
2024-04-20 03:04:00+00:00,315.0,0.01,18.0,0.0,12.17,47.59359,-54.27349
2024-04-20 03:14:00+00:00,315.0,0.01,18.0,0.0,12.17,47.59359,-54.27349
2024-04-20 03:24:00+00:00,315.0,0.01,18.0,0.0,12.17,47.59359,-54.27349
2024-04-20 03:34:00+00:00,315.0,0.01,18.0,0.0,12.17,47.59359,-54.27349
2024-04-20 03:44:00+00:00,315.0,0.01,18.0,0.0,12.17,47.59359,-54.27349
2024-04-20 03:54:00+00:00,315.0,0.01,18.0,0.0,12.17,47.59359,-54.27349
2024-04-20 04:04:00+00:00,315.0,0.01,18.0,0.0,12.17,47.59359,-54.27349
2024-04-20 04:14:00+00:00,315.0,0.01,18.0,0.0,12.17,47.59359,-54.27349
2024-04-20 04:24:00+00:00,315.0,0.01,18.0,0.0,12.17,47.59359,-54.27349
2024-04-20 04:34:00+00:00,315.0,0.01,18.0,0.0,12.17,47.59359,-54.27349
2024-04-20 04:44:00+00:00,315.0,0.01,18.0,0.0,12.17,47.59359,-54.27349
2024-04-20 04:54:00+00:00,315.0,0.01,18.0,0.0,12.17,47.59359,-54.27349
2024-04-20 05:04:00+00:00,315.0,0.01,18.0,0.0,12.17,47.59359,-54.27349
2024-04-20 05:14:01+00:00,315.0,0.01,18.0,0.0,12.09,47.59359,-54.27349
2024-04-20 05:24:01+00:00,315.0,0.01,18.0,0.0,12.09,47.59359,-54.27349
2024-04-20 05:34:01+00:00,315.0,0.01,18.0,0.0,12.09,47.59359,-54.27349
2024-04-20 05:44:01+00:00,315.0,0.01,18.0,0.0,12.09,47.59359,-54.27349
2024-04-20 05:54:01+00:00,315.0,0.01,18.0,0.0,12.09,47.59359,-54.27349
2024-04-20 06:04:01+00:00,315.0,0.01,18.0,0.0,12.09,47.59359,-54.27349
2024-04-20 06:14:00+00:00,315.0,0.01,18.0,0.0,12.09,47.59359,-54.27349
2024-04-20 06:24:00+00:00,315.0,0.01,18.0,0.0,12.09,47.59359,-54.27349
2024-04-20 06:34:00+00:00,315.0,0.01,18.0,0.0,12.09,47.59359,-54.27349
2024-04-20 06:44:00+00:00,315.0,0.01,18.0,0.0,12.09,47.59359,-54.27349
2024-04-20 06:54:00+00:00,315.0,0.01,18.0,0.0,12.09,47.59359,-54.27349
2024-04-20 07:04:00+00:00,315.0,0.01,18.0,0.0,12.09,47.59359,-54.27349
2024-04-20 07:14:00+00:00,315.0,0.01,18.0,0.0,12.09,47.59359,-54.27349
2024-04-20 07:24:00+00:00,315.0,0.01,18.0,0.0,12.09,47.59359,-54.27349
2024-04-20 07:34:00+00:00,315.0,0.01,18.0,0.0,12.09,47.59359,-54.27349
2024-04-20 07:44:00+00:00,315.0,0.01,18.0,0.0,12.09,47.59359,-54.27349
2024-04-20 07:54:00+00:00,315.0,0.01,18.0,0.0,12.09,47.59359,-54.27349
2024-04-20 08:04:00+00:00,315.0,0.01,18.0,0.0,12.09,47.59359,-54.27349
2024-04-20 08:14:00+00:00,315.0,0.01,18.0,0.0,12.09,47.59359,-54.27349
2024-04-20 08:24:00+00:00,315.0,0.01,18.0,0.0,12.09,47.59359,-54.27349
2024-04-20 08:34:00+00:00,315.0,0.01,18.0,0.0,12.09,47.59359,-54.27349
2024-04-20 08:44:00+00:00,315.0,0.01,18.0,0.0,12.09,47.59359,-54.27349
2024-04-20 08:54:00+00:00,315.0,0.01,18.0,0.0,12.09,47.59359,-54.27349
2024-04-20 09:04:00+00:00,315.0,0.01,18.0,0.0,12.09,47.59359,-54.27349
2024-04-20 09:14:00+00:00,315.0,0.01,18.0,0.0,12.09,47.59359,-54.27349
2024-04-20 09:24:00+00:00,315.0,0.01,18.0,0.0,12.09,47.59359,-54.27349
2024-04-20 09:34:00+00:00,315.0,0.01,18.0,0.0,12.09,47.59359,-54.27349
2024-04-20 09:44:00+00:00,315.0,0.01,18.0,0.0,12.09,47.59359,-54.27349
2024-04-20 09:54:00+00:00,315.0,0.01,18.0,0.0,12.09,47.59359,-54.27349
2024-04-20 10:04:00+00:00,315.0,0.01,18.0,0.0,12.09,47.59359,-54.27349
2024-04-20 10:14:00+00:00,315.0,0.01,18.0,0.0,13.21,47.59359,-54.27349
2024-04-20 10:24:00+00:00,315.0,0.01,18.0,0.0,13.21,47.59359,-54.27349
2024-04-20 10:34:00+00:00,315.0,0.01,18.0,0.0,13.21,47.59359,-54.27349
2024-04-20 10:44:00+00:00,315.0,0.01,18.0,0.0,13.21,47.59359,-54.27349
2024-04-20 10:54:00+00:00,315.0,0.01,18.0,0.0,13.21,47.59359,-54.27349
2024-04-20 11:04:00+00:00,315.0,0.01,18.0,0.0,13.21,47.59359,-54.27349
2024-04-20 11:14:00+00:00,315.0,0.01,18.0,0.0,13.68,47.59359,-54.27349
2024-04-20 11:24:00+00:00,26.0,0.72,22.0,0.79,13.68,47.59359,-54.27349
2024-04-20 11:34:00+00:00,62.0,0.57,53.0,0.77,13.68,47.59359,-54.27349
2024-04-20 11:44:00+00:00,56.0,0.57,61.0,0.7,13.68,47.59359,-54.27349
2024-04-20 11:54:00+00:00,342.0,0.65,346.0,0.78,13.68,47.59359,-54.27349
2024-04-20 12:04:00+00:00,315.0,0.01,334.0,0.0,13.68,47.59359,-54.27349
2024-04-20 12:14:01+00:00,315.0,0.01,334.0,0.0,14.24,47.59359,-54.27349
2024-04-20 12:24:01+00:00,315.0,0.01,334.0,0.0,14.24,47.59359,-54.27349
2024-04-20 12:34:01+00:00,315.0,0.01,318.0,0.0,14.24,47.59359,-54.27349
2024-04-20 12:44:01+00:00,315.0,0.01,318.0,0.0,14.24,47.59359,-54.27349
2024-04-20 12:54:01+00:00,315.0,0.01,318.0,0.0,14.24,47.59359,-54.27349
2024-04-20 13:04:01+00:00,315.0,0.01,318.0,0.0,14.24,47.59359,-54.27349
2024-04-20 13:14:00+00:00,315.0,0.01,318.0,0.0,14.32,47.59359,-54.27349
2024-04-20 13:24:00+00:00,315.0,0.01,318.0,0.0,14.32,47.59359,-54.27349
2024-04-20 13:34:00+00:00,315.0,0.01,318.0,0.0,14.32,47.59359,-54.27349
2024-04-20 13:44:00+00:00,315.0,0.01,221.0,0.0,14.32,47.59359,-54.27349
2024-04-20 13:54:00+00:00,315.0,0.01,190.0,0.0,14.32,47.59359,-54.27349
2024-04-20 14:04:00+00:00,315.0,0.01,190.0,0.0,14.32,47.59359,-54.27349
2024-04-20 14:14:00+00:00,315.0,0.01,190.0,0.0,13.92,47.59359,-54.27349
2024-04-20 14:24:00+00:00,315.0,0.01,190.0,0.0,13.92,47.59359,-54.27349
2024-04-20 14:34:00+00:00,315.0,0.01,190.0,0.0,13.92,47.59359,-54.27349
2024-04-20 14:44:00+00:00,315.0,0.01,190.0,0.0,13.92,47.59359,-54.27349
2024-04-20 14:54:00+00:00,315.0,0.01,190.0,0.0,13.92,47.59359,-54.27349
2024-04-20 15:04:00+00:00,315.0,0.01,190.0,0.0,13.92,47.59359,-54.27349
2024-04-20 15:14:00+00:00,315.0,0.01,190.0,0.0,13.68,47.59359,-54.27349
2024-04-20 15:24:00+00:00,315.0,0.01,190.0,0.0,13.68,47.59359,-54.27349
2024-04-20 15:34:00+00:00,315.0,0.01,190.0,0.0,13.68,47.59359,-54.27349
2024-04-20 15:44:00+00:00,315.0,0.01,190.0,0.0,13.68,47.59359,-54.27349
2024-04-20 15:54:00+00:00,315.0,0.01,190.0,0.0,13.68,47.59359,-54.27349
2024-04-20 16:04:00+00:00,315.0,0.01,190.0,0.0,13.68,47.59359,-54.27349
2024-04-20 16:14:00+00:00,315.0,0.01,190.0,0.0,13.84,47.59359,-54.27349
2024-04-20 16:24:00+00:00,315.0,0.01,190.0,0.0,13.84,47.59359,-54.27349
2024-04-20 16:34:00+00:00,315.0,0.01,190.0,0.0,13.84,47.59359,-54.27349
2024-04-20 16:44:00+00:00,315.0,0.01,190.0,0.0,13.84,47.59359,-54.27349
2024-04-20 16:54:00+00:00,315.0,0.01,190.0,0.0,13.84,47.59359,-54.27349
2024-04-20 17:04:00+00:00,315.0,0.01,190.0,0.0,13.84,47.59359,-54.27349
2024-04-20 17:14:00+00:00,315.0,0.01,190.0,0.0,14.32,47.59359,-54.27349
2024-04-20 17:24:00+00:00,315.0,0.01,190.0,0.0,14.32,47.59359,-54.27349
2024-04-20 17:34:00+00:00,315.0,0.01,190.0,0.0,14.32,47.59359,-54.27349
2024-04-20 17:44:00+00:00,315.0,0.01,190.0,0.0,14.32,47.59359,-54.27349
2024-04-20 17:54:00+00:00,315.0,0.01,190.0,0.0,14.32,47.59359,-54.27349
2024-04-20 18:04:00+00:00,315.0,0.01,190.0,0.0,14.32,47.59359,-54.27349
2024-04-20 18:14:00+00:00,315.0,0.01,190.0,0.0,14.4,47.59359,-54.27349
2024-04-20 18:24:00+00:00,315.0,0.01,190.0,0.0,14.4,47.59359,-54.27349
2024-04-20 18:34:00+00:00,315.0,0.01,190.0,0.0,14.4,47.59359,-54.27349
2024-04-20 18:44:00+00:00,315.0,0.01,190.0,0.0,14.4,47.59359,-54.27349
2024-04-20 18:54:00+00:00,315.0,0.01,190.0,0.0,14.4,47.59359,-54.27349
2024-04-20 19:04:00+00:00,315.0,0.01,190.0,0.0,14.4,47.59359,-54.27349
2024-04-20 19:14:00+00:00,315.0,0.01,190.0,0.0,13.6,47.59359,-54.27349
2024-04-20 19:24:00+00:00,315.0,0.01,190.0,0.0,13.6,47.59359,-54.27349
2024-04-20 19:34:00+00:00,315.0,0.01,190.0,0.0,13.6,47.59359,-54.27349
2024-04-20 19:44:00+00:00,315.0,0.01,190.0,0.0,13.6,47.59359,-54.27349
2024-04-20 19:54:00+00:00,315.0,0.01,190.0,0.0,13.6,47.59359,-54.27349
2024-04-20 20:04:00+00:00,315.0,0.01,190.0,0.0,13.6,47.59359,-54.27349
2024-04-20 20:14:01+00:00,315.0,0.01,214.0,0.0,13.6,47.59359,-54.27349
2024-04-20 20:24:01+00:00,315.0,0.01,214.0,0.0,13.6,47.59359,-54.27349
2024-04-20 20:34:01+00:00,315.0,0.01,214.0,0.0,13.6,47.59359,-54.27349
2024-04-20 20:44:01+00:00,315.0,0.01,214.0,0.0,13.6,47.59359,-54.27349
2024-04-20 20:54:01+00:00,315.0,0.01,214.0,0.0,13.6,47.59359,-54.27349
2024-04-20 21:04:01+00:00,315.0,0.01,219.0,0.0,13.6,47.59359,-54.27349
2024-04-20 21:14:00+00:00,315.0,0.01,219.0,0.0,13.53,47.59359,-54.27349
2024-04-20 21:24:00+00:00,315.0,0.01,219.0,0.0,13.53,47.59359,-54.27349
2024-04-20 21:34:00+00:00,315.0,0.01,219.0,0.0,13.53,47.59359,-54.27349
2024-04-20 21:44:00+00:00,315.0,0.01,219.0,0.0,13.53,47.59359,-54.27349
2024-04-20 21:54:00+00:00,315.0,0.01,219.0,0.0,13.53,47.59359,-54.27349
2024-04-20 22:04:00+00:00,315.0,0.01,219.0,0.0,13.53,47.59359,-54.27349
2024-04-20 22:14:00+00:00,315.0,0.01,219.0,0.0,12.97,47.59359,-54.27349
2024-04-20 22:24:00+00:00,315.0,0.01,239.0,0.0,12.97,47.59359,-54.27349
2024-04-20 22:34:00+00:00,315.0,0.01,239.0,0.0,12.97,47.59359,-54.27349
2024-04-20 22:44:00+00:00,315.0,0.01,239.0,0.0,12.97,47.59359,-54.27349
2024-04-20 22:54:00+00:00,315.0,0.01,239.0,0.0,12.97,47.59359,-54.27349
2024-04-20 23:04:00+00:00,315.0,0.01,239.0,0.0,12.97,47.59359,-54.27349
2024-04-20 23:14:00+00:00,315.0,0.01,239.0,0.0,12.41,47.59359,-54.27349
2024-04-20 23:24:00+00:00,315.0,0.01,239.0,0.0,12.41,47.59359,-54.27349
2024-04-20 23:34:00+00:00,315.0,0.01,239.0,0.0,12.41,47.59359,-54.27349
2024-04-20 23:44:00+00:00,226.0,9.91,227.0,9.93,12.41,47.59359,-54.27349
2024-04-20 23:54:00+00:00,315.0,0.01,227.0,0.0,12.41,47.59359,-54.27349
